GW5410 Weather Reports


time (UTC)temp
F
wind
direction
speed
knots
gust
knots
rain 1hr
in
rain 24hr
in
rain mn
in
humidity
%
barometer
mb
20260507033504 63 242 0.0 0.9 0.00 0.00 0.00 68 986.5
20260507033004 64 230 0.0 0.9 0.00 0.00 0.00 67 986.5
20260507032504 64 315 0.0 0.9 0.00 0.00 0.00 67 986.5
20260507032003 64 20 0.0 0.9 0.00 0.00 0.00 67 986.1
20260507031503 64 270 0.0 1.7 0.00 0.00 0.00 66 986.1
20260507030503 65 322 0.0 0.0 0.00 0.00 0.00 66 986.1
20260507030004 65 215 0.0 0.9 0.00 0.00 0.00 66 986.1
20260507025504 66 227 0.0 0.0 0.00 0.00 0.00 65 986.1
20260507025004 66 206 0.0 1.7 0.00 0.00 0.00 64 986.1
20260507024503 66 72 0.0 0.9 0.00 0.00 0.00 64 985.9
20260507024003 67 282 0.0 1.7 0.00 0.00 0.00 63 985.9
20260507023503 67 43 0.0 1.7 0.00 0.00 0.00 63 985.8
20260507022504 68 95 0.0 0.9 0.00 0.00 0.00 62 985.7
20260507022004 68 261 0.0 0.9 0.00 0.00 0.00 61 985.4
20260507020504 69 27 0.9 1.7 0.00 0.00 0.00 60 985.4
20260507020003 69 216 0.0 1.7 0.00 0.00 0.00 59 985.4
20260507015503 70 228 0.0 2.6 0.00 0.00 0.00 59 985.4
20260507015004 70 66 0.0 0.9 0.00 0.00 0.00 58 985.2
20260507013504 71 230 0.0 0.9 0.00 0.00 0.00 56 985.3
20260507013003 71 254 0.0 1.7 0.00 0.00 0.00 56 985.1
20260507012003 71 240 0.0 1.7 0.00 0.00 0.00 55 985.1
20260507011503 72 239 0.0 1.7 0.00 0.00 0.00 54 985.0
20260507011004 72 153 0.0 0.9 0.00 0.00 0.00 54 985.1
20260507010504 72 265 0.0 0.9 0.00 0.00 0.00 54 985.1
20260507010004 72 103 0.9 1.7 0.00 0.00 0.00 53 984.8
20260507005503 72 329 0.9 4.3 0.00 0.00 0.00 53 984.9
20260507005003 73 92 0.0 1.7 0.00 0.00 0.00 53 984.9
20260507004004 73 169 0.9 2.6 0.00 0.00 0.00 52 984.8
20260507003504 73 67 0.9 1.7 0.00 0.00 0.00 52 984.8
20260507003003 73 188 0.9 1.7 0.00 0.00 0.00 51 984.8
20260507002503 73 78 0.0 0.9 0.00 0.00 0.00 51 984.8
20260507002003 73 221 0.9 2.6 0.00 0.00 0.00 51 984.8
20260507001504 73 249 0.0 1.7 0.00 0.00 0.00 50 984.8
20260507001004 74 174 0.0 1.7 0.00 0.00 0.00 50 984.8
20260507000505 74 148 0.0 2.6 0.00 0.00 0.00 51 984.8
20260507000004 74 166 0.9 2.6 0.00 0.00 0.00 49 984.8
20260506235503 74 116 0.9 2.6 0.00 0.00 0.00 50 984.8
20260506235004 75 153 0.9 2.6 0.00 0.00 0.00 49 984.8
20260506234504 75 137 0.9 4.3 0.00 0.00 0.00 48 984.5
20260506234004 75 135 0.9 2.6 0.00 0.00 0.00 48 984.8
20260506233504 76 120 0.0 2.6 0.00 0.00 0.00 48 984.8
20260506233003 76 175 0.9 2.6 0.00 0.00 0.00 48 984.8
20260506232503 76 121 0.9 1.7 0.00 0.00 0.00 47 984.8
20260506232003 76 137 0.9 2.6 0.00 0.00 0.00 47 984.8
20260506231503 77 158 0.9 1.7 0.00 0.00 0.00 45 984.8
20260506231004 78 160 0.9 2.6 0.00 0.00 0.00 43 984.8
20260506230503 79 96 0.9 2.6 0.00 0.00 0.00 42 984.8
20260506230004 80 291 0.0 1.7 0.00 0.00 0.00 41 984.8
20260506225503 78 255 0.9 1.7 0.00 0.00 0.00 41 984.8
20260506225003 79 166 0.0 1.7 0.00 0.00 0.00 39 984.8
20260506224504 79 336 0.9 1.7 0.00 0.00 0.00 39 985.1
20260506224004 79 177 0.9 1.7 0.00 0.00 0.00 39 985.1
20260506223503 79 172 0.0 1.7 0.00 0.00 0.00 39 985.1
20260506223003 79 230 0.0 7.0 0.00 0.00 0.00 39 985.1
20260506222503 80 337 0.9 2.6 0.00 0.00 0.00 38 985.2
20260506222004 81 123 0.9 2.6 0.00 0.00 0.00 38 985.2
20260506221504 79 144 0.0 1.7 0.00 0.00 0.00 39 985.4
20260506221003 79 226 0.0 2.6 0.00 0.00 0.00 39 985.4
20260506220504 78 345 0.0 2.6 0.00 0.00 0.00 40 985.4
20260506215504 78 190 0.0 5.2 0.00 0.00 0.00 41 985.4
20260506215004 79 0 0.9 2.6 0.00 0.00 0.00 39 985.7
20260506214504 79 208 0.0 2.6 0.00 0.00 0.00 40 985.4
20260506214004 77 180 0.0 2.6 0.00 0.00 0.00 41 985.8
20260506213003 77 231 0.9 1.7 0.00 0.00 0.00 41 985.8
20260506212503 78 188 0.0 1.7 0.00 0.00 0.00 40 985.9
20260506211504 79 183 0.9 1.7 0.00 0.00 0.00 40 986.1
20260506210503 77 198 0.0 1.7 0.00 0.00 0.00 42 986.1
20260506210003 76 191 0.9 1.7 0.00 0.00 0.00 42 986.1
20260506205504 76 206 0.0 2.6 0.00 0.00 0.00 44 986.4
20260506205004 75 0 0.9 4.3 0.00 0.00 0.00 44 986.5
20260506204004 77 293 0.9 1.7 0.00 0.00 0.00 42 986.5
20260506203503 76 305 0.9 2.6 0.00 0.00 0.00 43 986.5
20260506203003 76 279 0.9 1.7 0.00 0.00 0.00 43 986.5
20260506202504 74 7 0.9 2.6 0.00 0.00 0.00 43 986.7
20260506202004 75 190 0.9 2.6 0.00 0.00 0.00 43 986.7
20260506201503 73 217 0.9 4.3 0.00 0.00 0.00 44 986.5
20260506201004 76 12 1.7 2.6 0.00 0.00 0.00 42 986.8
20260506200504 74 178 0.0 1.7 0.00 0.00 0.00 43 986.8
20260506200004 74 34 0.9 1.7 0.00 0.00 0.00 42 986.8
20260506195504 74 17 0.9 1.7 0.00 0.00 0.00 42 987.0
20260506195004 74 252 0.9 1.7 0.00 0.00 0.00 43 986.9
20260506194503 74 312 0.9 1.7 0.00 0.00 0.00 42 986.9
20260506193503 73 156 0.9 1.7 0.00 0.00 0.00 44 987.1
20260506193004 71 282 0.9 2.6 0.00 0.00 0.00 45 987.1
20260506192504 72 30 0.9 1.7 0.00 0.00 0.00 44 987.1
20260506192004 72 105 0.9 1.7 0.00 0.00 0.00 44 987.1
20260506191503 74 235 0.9 2.6 0.00 0.00 0.00 44 987.5
20260506190503 73 118 0.9 1.7 0.00 0.00 0.00 46 987.5
20260506190004 71 307 0.9 1.7 0.00 0.00 0.00 47 987.5
20260506185504 70 309 0.0 1.7 0.00 0.00 0.00 46 987.5
20260506184503 70 156 0.0 2.6 0.00 0.00 0.00 48 987.8
20260506183504 70 7 0.9 2.6 0.00 0.00 0.00 47 987.8
20260506182004 70 255 0.0 1.7 0.00 0.00 0.00 47 988.1
20260506181504 69 159 0.9 1.7 0.00 0.00 0.00 47 988.1
20260506181003 69 201 0.0 0.9 0.00 0.00 0.00 48 987.8
20260506180503 69 251 0.0 1.7 0.00 0.00 0.00 49 987.9
20260506175504 68 74 0.0 0.9 0.00 0.00 0.00 49 987.9
20260506175004 67 197 0.0 0.9 0.00 0.00 0.00 50 988.0
20260506174504 67 324 0.9 1.7 0.00 0.00 0.00 52 988.1
20260506174004 65 57 0.0 2.6 0.00 0.00 0.00 53 988.1
20260506173503 66 325 0.9 2.6 0.00 0.00 0.00 53 987.9
20260506172503 64 301 0.0 1.7 0.00 0.00 0.00 54 988.1
20260506172003 65 351 0.0 0.9 0.00 0.00 0.00 55 988.1
20260506171504 65 39 0.0 1.7 0.00 0.00 0.00 53 988.1
20260506171004 65 146 0.0 1.7 0.00 0.00 0.00 54 988.1
20260506170003 64 129 0.0 1.7 0.00 0.00 0.00 54 988.1
20260506165503 63 335 0.0 0.9 0.00 0.00 0.00 55 988.1
20260506165003 64 209 0.0 1.7 0.00 0.00 0.00 55 987.9
20260506164004 63 258 0.0 1.7 0.00 0.00 0.00 57 988.1
20260506163503 64 183 0.9 2.6 0.00 0.00 0.00 59 988.1
20260506162503 62 71 0.9 1.7 0.00 0.00 0.00 61 988.1
20260506162004 62 213 0.9 2.6 0.00 0.00 0.00 61 988.1
20260506161504 61 245 0.9 4.3 0.00 0.00 0.00 64 988.1
20260506160004 59 277 0.9 1.7 0.00 0.00 0.00 71 988.1
20260506155504 58 281 0.9 1.7 0.00 0.00 0.00 73 988.1
20260506155004 57 333 0.0 1.7 0.00 0.00 0.00 75 988.1
20260506154003 58 234 0.9 1.7 0.00 0.00 0.00 77 988.1
20260506153003 57 340 0.0 0.9 0.00 0.00 0.00 79 988.1
20260506152503 57 248 0.0 1.7 0.00 0.00 0.00 80 988.1
20260506152004 56 217 0.9 1.7 0.00 0.00 0.00 83 988.1
20260506151003 53 272 0.0 0.9 0.00 0.00 0.00 93 988.2
20260506150503 53 351 0.0 1.7 0.00 0.00 0.00 96 988.1
20260506150004 52 210 0.0 0.9 0.00 0.00 0.00 97 988.1
20260506145503 52 284 0.0 0.9 0.00 0.00 0.00 98 988.2
20260506145003 51 296 0.0 1.7 0.00 0.00 0.00 98 988.2
20260506144503 51 126 0.0 1.7 0.00 0.00 0.00 98 988.1
20260506144003 51 217 0.0 1.7 0.00 0.00 0.00 98 988.1
20260506143004 50 319 0.0 1.7 0.00 0.00 0.00 98 988.1
20260506142003 49 302 0.9 0.9 0.00 0.00 0.00 98 988.1
20260506141503 48 163 0.0 0.9 0.00 0.00 0.00 98 987.9
20260506140504 47 5 0.0 0.9 0.00 0.00 0.00 98 988.1
20260506140004 48 118 0.9 1.7 0.00 0.00 0.00 98 988.1
20260506135003 46 157 0.9 1.7 0.00 0.00 0.00 98 987.8
20260506134004 46 162 0.9 1.7 0.00 0.00 0.00 97 987.9
20260506133504 46 184 0.0 1.7 0.00 0.00 0.00 97 988.0
20260506133004 46 193 0.9 1.7 0.00 0.00 0.00 97 987.7
20260506132503 45 109 0.0 1.7 0.00 0.00 0.00 97 987.6
20260506132004 45 156 0.0 1.7 0.00 0.00 0.00 97 987.8
20260506131503 45 5 0.9 2.6 0.00 0.00 0.00 97 987.7
20260506130503 45 153 0.9 1.7 0.00 0.00 0.00 97 987.5
20260506130003 45 87 0.0 1.7 0.00 0.00 0.00 97 987.5
20260506125004 45 179 1.7 1.7 0.00 0.00 0.00 97 987.2
20260506124504 45 151 0.9 1.7 0.00 0.00 0.00 97 987.5
20260506124003 46 140 0.0 1.7 0.00 0.00 0.00 97 987.5
20260506123004 46 252 0.0 2.6 0.00 0.00 0.00 97 987.1
20260506122504 46 6 0.9 1.7 0.00 0.00 0.00 97 987.1
20260506122003 46 157 0.9 1.7 0.00 0.00 0.00 97 987.5
20260506121503 46 243 0.0 0.9 0.00 0.00 0.00 97 987.1
20260506121003 46 117 0.9 2.6 0.00 0.00 0.00 97 987.1
20260506120504 46 202 1.7 2.6 0.00 0.00 0.00 97 987.1
20260506120003 46 158 0.9 2.6 0.00 0.00 0.00 97 987.1
20260506115503 46 215 0.0 2.6 0.00 0.00 0.00 97 987.1
20260506115003 46 169 1.7 1.7 0.00 0.00 0.00 97 987.1
20260506114503 46 203 0.9 2.6 0.00 0.00 0.00 97 987.0
20260506113503 46 116 0.0 1.7 0.00 0.00 0.00 97 987.1
20260506113003 46 30 0.0 1.7 0.00 0.00 0.00 97 987.1
20260506112004 46 205 1.7 4.3 0.00 0.00 0.00 96 987.1
20260506110004 47 234 0.9 2.6 0.00 0.00 0.00 96 987.1
20260506104504 47 347 0.0 0.9 0.00 0.00 0.00 96 987.1
20260506104004 47 15 0.0 1.7 0.00 0.00 0.00 96 986.9
20260506103504 47 75 0.9 1.7 0.00 0.00 0.00 96 987.1
20260506103004 47 234 1.7 1.7 0.00 0.00 0.00 96 987.1
20260506102503 47 91 0.9 2.6 0.00 0.00 0.00 96 987.1
20260506102003 47 161 0.0 1.7 0.00 0.00 0.00 96 987.1
20260506101503 47 87 0.9 1.7 0.00 0.00 0.00 96 987.1
20260506101003 47 162 1.7 2.6 0.00 0.00 0.00 96 987.1
20260506095004 47 160 0.9 1.7 0.00 0.00 0.00 96 987.1
20260506094004 47 29 1.7 4.3 0.00 0.00 0.00 96 987.1
20260506093503 47 327 1.7 2.6 0.00 0.00 0.00 96 987.1
20260506093004 48 192 0.9 1.7 0.00 0.00 0.00 96 987.1
20260506092503 48 140 0.0 0.9 0.00 0.00 0.00 96 987.1
20260506092003 48 274 0.9 1.7 0.00 0.00 0.00 96 987.1
20260506090503 48 154 0.0 0.0 0.00 0.00 0.00 95 987.1
20260506090004 48 154 0.0 0.0 0.00 0.00 0.00 95 987.1
20260506085003 48 154 0.0 0.0 0.00 0.00 0.00 95 987.5
20260506084503 48 154 0.0 0.0 0.00 0.00 0.00 95 987.2
20260506084004 48 154 0.0 0.0 0.00 0.00 0.00 95 987.2
20260506083003 49 154 0.0 0.0 0.00 0.01 0.00 94 987.2
20260506082503 49 154 0.0 0.0 0.00 0.01 0.00 94 987.5
20260506082003 49 154 0.0 0.0 0.00 0.02 0.00 94 987.5
20260506080503 49 154 0.0 0.0 0.00 0.02 0.00 93 987.5
20260506073503 50 224 0.0 0.0 0.00 0.02 0.00 92 987.5
20260506073003 50 224 0.0 0.0 0.00 0.02 0.00 91 987.5
20260506072504 50 224 0.0 0.0 0.00 0.02 0.00 91 987.5
20260506072004 50 224 0.0 0.0 0.00 0.02 0.00 90 987.1
20260506071504 50 224 0.0 0.0 0.00 0.02 0.00 90 987.2
20260506071003 50 224 0.0 0.0 0.00 0.02 0.00 89 987.5
20260506070503 51 224 0.0 0.0 0.00 0.02 0.00 88 987.2
20260506062003 53 210 0.0 0.0 0.00 0.02 0.02 82 987.1
20260506061503 53 157 0.0 0.0 0.00 0.02 0.02 82 987.1
20260506061003 53 66 0.0 0.0 0.00 0.02 0.02 81 986.8
20260506060503 54 66 0.0 0.0 0.00 0.02 0.02 81 986.8
20260506050504 56 224 0.0 0.0 0.00 0.02 0.02 72 986.5
20260506045003 55 135 0.0 0.0 0.00 0.02 0.02 73 986.5
20260506044503 55 135 0.0 0.0 0.00 0.02 0.02 73 986.4
20260506044004 55 135 0.0 0.0 0.00 0.02 0.02 73 986.1
20260506043504 55 135 0.0 0.0 0.00 0.02 0.02 73 986.1
20260506042503 55 135 0.0 0.0 0.00 0.02 0.02 72 985.8
20260506042003 55 126 0.0 0.0 0.00 0.02 0.02 73 985.8
20260506041503 55 126 0.0 0.0 0.00 0.02 0.02 72 985.8
20260506041004 55 126 0.0 0.0 0.00 0.02 0.02 72 985.8
20260506040004 55 126 0.0 0.0 0.00 0.02 0.02 71 985.4
20260506035503 55 126 0.0 0.9 0.00 0.02 0.02 71 985.4
20260506035004 55 124 0.0 0.0 0.00 0.02 0.02 70 985.3